Year,Month,Day,Hour,Minute,Value (Times are PST for temperature in C)
2009,05,21,00,00,6.30
2009,05,21,00,01,6.30
2009,05,21,00,02,6.30
2009,05,21,00,03,6.30
2009,05,21,00,04,6.30
2009,05,21,00,05,6.30
2009,05,21,00,06,6.20
2009,05,21,00,07,6.20
2009,05,21,00,08,6.20
2009,05,21,00,09,6.20
2009,05,21,00,10,6.20
2009,05,21,00,11,6.20
2009,05,21,00,12,6.20
2009,05,21,00,13,6.20
2009,05,21,00,14,6.20
2009,05,21,00,15,6.20
2009,05,21,00,16,6.20
2009,05,21,00,17,6.20
2009,05,21,00,18,6.10
2009,05,21,00,19,6.10
2009,05,21,00,20,6.10
2009,05,21,00,21,6.10
2009,05,21,00,22,6.10
2009,05,21,00,23,6.10
2009,05,21,00,24,6.10
2009,05,21,00,25,6.10
2009,05,21,00,26,6.10
2009,05,21,00,27,6.10
2009,05,21,00,28,6.10
2009,05,21,00,29,6.10
2009,05,21,00,30,6.10
2009,05,21,00,31,6.20
2009,05,21,00,32,6.20
2009,05,21,00,33,6.20
2009,05,21,00,34,6.20
2009,05,21,00,35,6.20
2009,05,21,00,36,6.10
2009,05,21,00,37,6.10
2009,05,21,00,38,6.10
2009,05,21,00,39,6.10
2009,05,21,00,40,6.10
2009,05,21,00,41,6.10
2009,05,21,00,42,6.10
2009,05,21,00,43,6.10
2009,05,21,00,44,6.10
2009,05,21,00,45,6.10
2009,05,21,00,46,6.10
2009,05,21,00,47,6.10
2009,05,21,00,48,6.00
2009,05,21,00,49,6.00
2009,05,21,00,50,6.00
2009,05,21,00,51,6.00
2009,05,21,00,52,6.00
2009,05,21,00,53,6.00
2009,05,21,00,54,5.90
2009,05,21,00,55,5.90
2009,05,21,00,56,5.90
2009,05,21,00,57,5.90
2009,05,21,00,58,5.90
2009,05,21,00,59,5.90
2009,05,21,01,00,5.90
2009,05,21,01,01,5.90
2009,05,21,01,02,5.90
2009,05,21,01,03,5.90
2009,05,21,01,04,5.90
2009,05,21,01,05,5.90
2009,05,21,01,06,5.90
2009,05,21,01,07,5.90
2009,05,21,01,08,5.90
2009,05,21,01,09,5.90
2009,05,21,01,10,5.90
2009,05,21,01,11,5.90
2009,05,21,01,12,5.90
2009,05,21,01,13,5.90
2009,05,21,01,14,5.90
2009,05,21,01,15,5.80
2009,05,21,01,16,5.80
2009,05,21,01,17,5.80
2009,05,21,01,18,5.80
2009,05,21,01,19,5.80
2009,05,21,01,20,5.80
2009,05,21,01,21,5.80
2009,05,21,01,22,5.80
2009,05,21,01,23,5.80
2009,05,21,01,24,5.80
2009,05,21,01,25,5.70
2009,05,21,01,26,5.70
2009,05,21,01,27,5.70
2009,05,21,01,28,5.70
2009,05,21,01,29,5.70
2009,05,21,01,30,5.70
2009,05,21,01,31,5.70
2009,05,21,01,32,5.70
2009,05,21,01,33,5.70
2009,05,21,01,34,5.70
2009,05,21,01,35,5.70
2009,05,21,01,36,5.70
2009,05,21,01,37,5.70
2009,05,21,01,38,5.70
2009,05,21,01,39,5.60
2009,05,21,01,40,5.60
2009,05,21,01,41,5.60
2009,05,21,01,42,5.60
2009,05,21,01,43,5.60
2009,05,21,01,44,5.60
2009,05,21,01,45,5.50
2009,05,21,01,46,5.50
2009,05,21,01,47,5.50
2009,05,21,01,48,5.50
2009,05,21,01,49,5.40
2009,05,21,01,50,5.40
2009,05,21,01,51,5.40
2009,05,21,01,52,5.40
2009,05,21,01,53,5.40
2009,05,21,01,54,5.40
2009,05,21,01,55,5.40
2009,05,21,01,56,5.40
2009,05,21,01,57,5.40
2009,05,21,01,58,5.40
2009,05,21,01,59,5.40
2009,05,21,02,00,5.40
2009,05,21,02,01,5.40
2009,05,21,02,02,5.40
2009,05,21,02,03,5.40
2009,05,21,02,04,5.40
2009,05,21,02,05,5.40
2009,05,21,02,06,5.40
2009,05,21,02,07,5.40
2009,05,21,02,08,5.40
2009,05,21,02,09,5.40
2009,05,21,02,10,5.40
2009,05,21,02,11,5.40
2009,05,21,02,12,5.40
2009,05,21,02,13,5.40
2009,05,21,02,14,5.40
2009,05,21,02,15,5.40
2009,05,21,02,16,5.40
2009,05,21,02,17,5.30
2009,05,21,02,18,5.30
2009,05,21,02,19,5.30
2009,05,21,02,20,5.30
2009,05,21,02,21,5.30
2009,05,21,02,22,5.30
2009,05,21,02,23,5.30
2009,05,21,02,24,5.30
2009,05,21,02,25,5.30
2009,05,21,02,26,5.30
2009,05,21,02,27,5.30
2009,05,21,02,28,5.30
2009,05,21,02,29,5.30
2009,05,21,02,30,5.30
2009,05,21,02,31,5.20
2009,05,21,02,32,5.20
2009,05,21,02,33,5.20
2009,05,21,02,34,5.20
2009,05,21,02,35,5.20
2009,05,21,02,36,5.20
2009,05,21,02,37,5.20
2009,05,21,02,38,5.20
2009,05,21,02,39,5.10
2009,05,21,02,40,5.10
2009,05,21,02,41,5.10
2009,05,21,02,42,5.10
2009,05,21,02,43,5.10
2009,05,21,02,44,5.10
2009,05,21,02,45,5.10
2009,05,21,02,46,5.10
2009,05,21,02,47,5.10
2009,05,21,02,48,5.10
2009,05,21,02,49,5.00
2009,05,21,02,50,5.00
2009,05,21,02,51,5.00
2009,05,21,02,52,5.00
2009,05,21,02,53,5.00
2009,05,21,02,54,5.00
2009,05,21,02,55,5.00
2009,05,21,02,56,4.90
2009,05,21,02,57,4.90
2009,05,21,02,58,4.90
2009,05,21,02,59,4.90
2009,05,21,03,00,4.90
2009,05,21,03,01,4.90
2009,05,21,03,02,4.90
2009,05,21,03,03,4.90
2009,05,21,03,04,4.90
2009,05,21,03,05,4.90
2009,05,21,03,06,4.80
2009,05,21,03,07,4.80
2009,05,21,03,08,4.80
2009,05,21,03,09,4.80
2009,05,21,03,10,4.80
2009,05,21,03,11,4.80
2009,05,21,03,12,4.80
2009,05,21,03,13,4.80
2009,05,21,03,14,4.80
2009,05,21,03,15,4.80
2009,05,21,03,16,4.80
2009,05,21,03,17,4.70
2009,05,21,03,18,4.70
2009,05,21,03,19,4.70
2009,05,21,03,20,4.70
2009,05,21,03,21,4.70
2009,05,21,03,22,4.70
2009,05,21,03,23,4.70
2009,05,21,03,24,4.70
2009,05,21,03,25,4.60
2009,05,21,03,26,4.60
2009,05,21,03,27,4.60
2009,05,21,03,28,4.60
2009,05,21,03,29,4.60
2009,05,21,03,30,4.60
2009,05,21,03,31,4.60
2009,05,21,03,32,4.50
2009,05,21,03,33,4.50
2009,05,21,03,34,4.50
2009,05,21,03,35,4.50
2009,05,21,03,36,4.40
2009,05,21,03,37,4.40
2009,05,21,03,38,4.40
2009,05,21,03,39,4.40
2009,05,21,03,40,4.40
2009,05,21,03,41,4.40
2009,05,21,03,42,4.40
2009,05,21,03,43,4.40
2009,05,21,03,44,4.30
2009,05,21,03,45,4.30
2009,05,21,03,46,4.30
2009,05,21,03,47,4.30
2009,05,21,03,48,4.30
2009,05,21,03,49,4.30
2009,05,21,03,50,4.30
2009,05,21,03,51,4.30
2009,05,21,03,52,4.30
2009,05,21,03,53,4.20
2009,05,21,03,54,4.20
2009,05,21,03,55,4.20
2009,05,21,03,56,4.20
2009,05,21,03,57,4.20
2009,05,21,03,58,4.20
2009,05,21,03,59,4.20
2009,05,21,04,00,4.10
2009,05,21,04,01,4.10
2009,05,21,04,02,4.10
2009,05,21,04,03,4.10
2009,05,21,04,04,4.10
2009,05,21,04,05,4.10
2009,05,21,04,06,4.10
2009,05,21,04,07,4.10
2009,05,21,04,08,4.10
2009,05,21,04,09,4.10
2009,05,21,04,10,4.00
2009,05,21,04,11,4.00
2009,05,21,04,12,4.00
2009,05,21,04,13,4.00
2009,05,21,04,14,4.00
2009,05,21,04,15,4.00
2009,05,21,04,16,4.00
2009,05,21,04,17,4.00
2009,05,21,04,18,4.00
2009,05,21,04,19,4.00
2009,05,21,04,20,4.00
2009,05,21,04,21,4.00
2009,05,21,04,22,4.00
2009,05,21,04,23,3.90
2009,05,21,04,24,3.90
2009,05,21,04,25,3.90
2009,05,21,04,26,3.90
2009,05,21,04,27,3.90
2009,05,21,04,28,3.90
2009,05,21,04,29,3.90
2009,05,21,04,30,3.90
2009,05,21,04,31,3.90
2009,05,21,04,32,3.90
2009,05,21,04,33,3.90
2009,05,21,04,34,3.90
2009,05,21,04,35,3.90
2009,05,21,04,36,3.80
2009,05,21,04,37,3.80
2009,05,21,04,38,3.80
2009,05,21,04,39,3.80
2009,05,21,04,40,3.80
2009,05,21,04,41,3.80
2009,05,21,04,42,3.80
2009,05,21,04,43,3.80
2009,05,21,04,44,3.80
2009,05,21,04,45,3.80
2009,05,21,04,46,3.80
2009,05,21,04,47,3.70
2009,05,21,04,48,3.70
2009,05,21,04,49,3.70
2009,05,21,04,50,3.70
2009,05,21,04,51,3.70
2009,05,21,04,52,3.70
2009,05,21,04,53,3.70
2009,05,21,04,54,3.70
2009,05,21,04,55,3.70
2009,05,21,04,56,3.70
2009,05,21,04,57,3.70
2009,05,21,04,58,3.70
2009,05,21,04,59,3.70
2009,05,21,05,00,3.70
2009,05,21,05,01,3.70
2009,05,21,05,02,3.70
2009,05,21,05,03,3.70
2009,05,21,05,04,3.70
2009,05,21,05,05,3.70
2009,05,21,05,06,3.70
2009,05,21,05,07,3.70
2009,05,21,05,08,3.70
2009,05,21,05,09,3.60
2009,05,21,05,10,3.60
2009,05,21,05,11,3.60
2009,05,21,05,12,3.60
2009,05,21,05,13,3.60
2009,05,21,05,14,3.60
2009,05,21,05,15,3.60
2009,05,21,05,16,3.60
2009,05,21,05,17,3.60
2009,05,21,05,18,3.60
2009,05,21,05,19,3.60
2009,05,21,05,20,3.60
2009,05,21,05,21,3.60
2009,05,21,05,22,3.60
2009,05,21,05,23,3.60
2009,05,21,05,24,3.60
2009,05,21,05,25,3.60
2009,05,21,05,26,3.60
2009,05,21,05,27,3.60
2009,05,21,05,28,3.60
2009,05,21,05,29,3.60
2009,05,21,05,30,3.60
2009,05,21,05,31,3.60
2009,05,21,05,32,3.60
2009,05,21,05,33,3.60
2009,05,21,05,34,3.60
2009,05,21,05,35,3.60
2009,05,21,05,36,3.60
2009,05,21,05,37,3.60
2009,05,21,05,38,3.60
2009,05,21,05,39,3.60
2009,05,21,05,40,3.50
2009,05,21,05,41,3.50
2009,05,21,05,42,3.50
2009,05,21,05,43,3.50
2009,05,21,05,44,3.50
2009,05,21,05,45,3.50
2009,05,21,05,46,3.50
2009,05,21,05,47,3.50
2009,05,21,05,48,3.50
2009,05,21,05,49,3.50
2009,05,21,05,50,3.50
2009,05,21,05,51,3.40
2009,05,21,05,52,3.40
2009,05,21,05,53,3.40
2009,05,21,05,54,3.40
2009,05,21,05,55,3.40
2009,05,21,05,56,3.40
2009,05,21,05,57,3.40
2009,05,21,05,58,3.40
2009,05,21,05,59,3.40
2009,05,21,06,00,3.40
2009,05,21,06,01,3.40
2009,05,21,06,02,3.40
2009,05,21,06,03,3.40
2009,05,21,06,04,3.40
2009,05,21,06,05,3.40
2009,05,21,06,06,3.40
2009,05,21,06,07,3.40
2009,05,21,06,08,3.40
2009,05,21,06,09,3.40
2009,05,21,06,10,3.40
2009,05,21,06,11,3.40
2009,05,21,06,12,3.40
2009,05,21,06,13,3.30
2009,05,21,06,14,3.30
2009,05,21,06,15,3.30
2009,05,21,06,16,3.30
2009,05,21,06,17,3.30
2009,05,21,06,18,3.40
2009,05,21,06,19,3.40
2009,05,21,06,20,3.40
2009,05,21,06,21,3.40
2009,05,21,06,22,3.40
2009,05,21,06,23,3.40
2009,05,21,06,24,3.40
2009,05,21,06,25,3.40
2009,05,21,06,26,3.50
2009,05,21,06,27,3.50
2009,05,21,06,28,3.50
2009,05,21,06,29,3.50
2009,05,21,06,30,3.50
2009,05,21,06,31,3.50
2009,05,21,06,32,3.60
2009,05,21,06,33,3.60
2009,05,21,06,34,3.60
2009,05,21,06,35,3.70
2009,05,21,06,36,3.70
2009,05,21,06,37,3.70
2009,05,21,06,38,3.70
2009,05,21,06,39,3.80
2009,05,21,06,40,3.80
2009,05,21,06,41,3.80
2009,05,21,06,42,3.80
2009,05,21,06,43,3.90
2009,05,21,06,44,3.90
2009,05,21,06,45,3.90
2009,05,21,06,46,3.90
2009,05,21,06,47,4.00
2009,05,21,06,48,4.00
2009,05,21,06,49,4.10
2009,05,21,06,50,4.10
2009,05,21,06,51,4.10
2009,05,21,06,52,4.10
2009,05,21,06,53,4.10
2009,05,21,06,54,4.20
2009,05,21,06,55,4.20
2009,05,21,06,56,4.20
2009,05,21,06,57,4.20
2009,05,21,06,58,4.20
2009,05,21,06,59,4.30
2009,05,21,07,00,4.30
2009,05,21,07,01,4.30
2009,05,21,07,02,4.30
2009,05,21,07,03,4.40
2009,05,21,07,04,4.40
2009,05,21,07,05,4.40
2009,05,21,07,06,4.40
2009,05,21,07,07,4.50
2009,05,21,07,08,4.50
2009,05,21,07,09,4.60
2009,05,21,07,10,4.60
2009,05,21,07,11,4.60
2009,05,21,07,12,4.70
2009,05,21,07,13,4.70
2009,05,21,07,14,4.70
2009,05,21,07,15,4.80
2009,05,21,07,16,4.80
2009,05,21,07,17,4.80
2009,05,21,07,18,4.90
2009,05,21,07,19,4.90
2009,05,21,07,20,4.90
2009,05,21,07,21,5.00
2009,05,21,07,22,5.00
2009,05,21,07,23,5.10
2009,05,21,07,24,5.10
2009,05,21,07,25,5.10
2009,05,21,07,26,5.10
2009,05,21,07,27,5.20
2009,05,21,07,28,5.20
2009,05,21,07,29,5.20
2009,05,21,07,30,5.30
2009,05,21,07,31,5.30
2009,05,21,07,32,5.40
2009,05,21,07,33,5.40
2009,05,21,07,34,5.40
2009,05,21,07,35,5.50
2009,05,21,07,36,5.50
2009,05,21,07,37,5.60
2009,05,21,07,38,5.60
2009,05,21,07,39,5.70
2009,05,21,07,40,5.70
2009,05,21,07,41,5.80
2009,05,21,07,42,5.80
2009,05,21,07,43,5.90
2009,05,21,07,44,5.90
2009,05,21,07,45,6.00
2009,05,21,07,46,6.00
2009,05,21,07,47,6.10
2009,05,21,07,48,6.10
2009,05,21,07,49,6.10
2009,05,21,07,50,6.20
2009,05,21,07,51,6.20
2009,05,21,07,52,6.30
2009,05,21,07,53,6.30
2009,05,21,07,54,6.40
2009,05,21,07,55,6.50
2009,05,21,07,56,6.60
2009,05,21,07,57,6.70
2009,05,21,07,58,6.80
2009,05,21,07,59,6.90
2009,05,21,08,00,7.00
2009,05,21,08,01,7.20
2009,05,21,08,02,7.30
2009,05,21,08,03,7.40
2009,05,21,08,04,7.50
2009,05,21,08,05,7.60
2009,05,21,08,06,7.70
2009,05,21,08,07,7.90
2009,05,21,08,08,8.00
2009,05,21,08,09,8.20
2009,05,21,08,10,8.30
2009,05,21,08,11,8.40
2009,05,21,08,12,8.60
2009,05,21,08,13,8.70
2009,05,21,08,14,8.80
2009,05,21,08,15,8.90
2009,05,21,08,16,9.00
2009,05,21,08,17,9.10
2009,05,21,08,18,9.20
2009,05,21,08,19,9.30
2009,05,21,08,20,9.40
2009,05,21,08,21,9.50
2009,05,21,08,22,9.60
2009,05,21,08,23,9.70
2009,05,21,08,24,9.70
2009,05,21,08,25,9.80
2009,05,21,08,26,9.80
2009,05,21,08,27,9.90
2009,05,21,08,28,9.90
2009,05,21,08,29,10.00
2009,05,21,08,30,10.00
2009,05,21,08,31,10.10
2009,05,21,08,32,10.20
2009,05,21,08,33,10.20
2009,05,21,08,34,10.30
2009,05,21,08,35,10.30
2009,05,21,08,36,10.40
2009,05,21,08,37,10.50
2009,05,21,08,38,10.50
2009,05,21,08,39,10.60
2009,05,21,08,40,10.60
2009,05,21,08,41,10.70
2009,05,21,08,42,10.70
2009,05,21,08,43,10.70
2009,05,21,08,44,10.70
2009,05,21,08,45,10.70
2009,05,21,08,46,10.70
2009,05,21,08,47,10.70
2009,05,21,08,48,10.70
2009,05,21,08,49,10.70
2009,05,21,08,50,10.70
2009,05,21,08,51,10.70
2009,05,21,08,52,10.80
2009,05,21,08,53,10.80
2009,05,21,08,54,10.80
2009,05,21,08,55,10.90
2009,05,21,08,56,10.90
2009,05,21,08,57,10.90
2009,05,21,08,58,11.00
2009,05,21,08,59,11.00
2009,05,21,09,00,11.10
2009,05,21,09,01,11.10
2009,05,21,09,02,11.10
2009,05,21,09,03,11.10
2009,05,21,09,04,11.10
2009,05,21,09,05,11.10
2009,05,21,09,06,11.20
2009,05,21,09,07,11.10
2009,05,21,09,08,11.20
2009,05,21,09,09,11.20
2009,05,21,09,10,11.20
2009,05,21,09,11,11.20
2009,05,21,09,12,11.20
2009,05,21,09,13,11.30
2009,05,21,09,14,11.30
2009,05,21,09,15,11.40
2009,05,21,09,16,11.40
2009,05,21,09,17,11.50
2009,05,21,09,18,11.60
2009,05,21,09,19,11.70
2009,05,21,09,20,11.70
2009,05,21,09,21,11.70
2009,05,21,09,22,11.70
2009,05,21,09,23,11.70
2009,05,21,09,24,11.70
2009,05,21,09,25,11.70
2009,05,21,09,26,11.70
2009,05,21,09,27,11.80
2009,05,21,09,28,11.80
2009,05,21,09,29,11.80
2009,05,21,09,30,11.80
2009,05,21,09,31,11.80
2009,05,21,09,32,11.80
2009,05,21,09,33,11.90
2009,05,21,09,34,11.90
2009,05,21,09,35,12.00
2009,05,21,09,36,12.00
2009,05,21,09,37,12.00
2009,05,21,09,38,12.00
2009,05,21,09,39,12.00
2009,05,21,09,40,12.00
2009,05,21,09,41,12.00
2009,05,21,09,42,12.00
2009,05,21,09,43,12.10
2009,05,21,09,44,12.10
2009,05,21,09,45,12.20
2009,05,21,09,46,12.20
2009,05,21,09,47,12.30
2009,05,21,09,48,12.30
2009,05,21,09,49,12.40
2009,05,21,09,50,12.40
2009,05,21,09,51,12.50
2009,05,21,09,52,12.60
2009,05,21,09,53,12.60
2009,05,21,09,54,12.60
2009,05,21,09,55,12.60
2009,05,21,09,56,12.70
2009,05,21,09,57,12.80
2009,05,21,09,58,12.80
2009,05,21,09,59,12.80
2009,05,21,10,00,12.80
2009,05,21,10,01,12.80
2009,05,21,10,02,12.80
2009,05,21,10,03,12.80
2009,05,21,10,04,12.80
2009,05,21,10,05,12.80
2009,05,21,10,06,12.80
2009,05,21,10,07,12.90
2009,05,21,10,08,12.90
2009,05,21,10,09,13.00
2009,05,21,10,10,13.00
2009,05,21,10,11,12.90
2009,05,21,10,12,12.90
2009,05,21,10,13,12.90
2009,05,21,10,14,12.80
2009,05,21,10,15,12.80
2009,05,21,10,16,12.90
2009,05,21,10,17,12.90
2009,05,21,10,18,12.90
2009,05,21,10,19,12.90
2009,05,21,10,20,12.90
2009,05,21,10,21,12.90
2009,05,21,10,22,13.00
2009,05,21,10,23,13.00
2009,05,21,10,24,13.10
2009,05,21,10,25,13.10
2009,05,21,10,26,13.10
2009,05,21,10,27,13.10
2009,05,21,10,28,13.20
2009,05,21,10,29,13.20
2009,05,21,10,30,13.20
2009,05,21,10,31,13.30
2009,05,21,10,32,13.30
2009,05,21,10,33,13.30
2009,05,21,10,34,13.40
2009,05,21,10,35,13.40
2009,05,21,10,36,13.40
2009,05,21,10,37,13.40
2009,05,21,10,38,13.50
2009,05,21,10,39,13.50
2009,05,21,10,40,13.50
2009,05,21,10,41,13.50
2009,05,21,10,42,13.60
2009,05,21,10,43,13.60
2009,05,21,10,44,13.60
2009,05,21,10,45,13.70
2009,05,21,10,46,13.70
2009,05,21,10,47,13.70
2009,05,21,10,48,13.80
2009,05,21,10,49,13.80
2009,05,21,10,50,13.80
2009,05,21,10,51,13.80
2009,05,21,10,52,13.80
2009,05,21,10,53,13.80
2009,05,21,10,54,13.90
2009,05,21,10,55,14.00
2009,05,21,10,56,14.00
2009,05,21,10,57,14.10
2009,05,21,10,58,14.10
2009,05,21,10,59,14.20
2009,05,21,11,00,14.20
2009,05,21,11,01,14.20
2009,05,21,11,02,14.20
2009,05,21,11,03,14.20
2009,05,21,11,04,14.20
2009,05,21,11,05,14.10
2009,05,21,11,06,14.00
2009,05,21,11,07,14.00
2009,05,21,11,08,14.00
2009,05,21,11,09,14.00
2009,05,21,11,10,14.00
2009,05,21,11,11,14.00
2009,05,21,11,12,14.00
2009,05,21,11,13,14.00
2009,05,21,11,14,14.00
2009,05,21,11,15,14.00
2009,05,21,11,16,14.10
2009,05,21,11,17,14.10
2009,05,21,11,18,14.10
2009,05,21,11,19,14.20
2009,05,21,11,20,14.30
2009,05,21,11,21,14.40
2009,05,21,11,22,14.40
2009,05,21,11,23,14.40
2009,05,21,11,24,14.40
2009,05,21,11,25,14.40
2009,05,21,11,26,14.30
2009,05,21,11,27,14.30
2009,05,21,11,28,14.40
2009,05,21,11,29,14.40
2009,05,21,11,30,14.50
2009,05,21,11,31,14.60
2009,05,21,11,32,14.70
2009,05,21,11,33,14.80
2009,05,21,11,34,14.80
2009,05,21,11,35,14.90
2009,05,21,11,36,14.80
2009,05,21,11,37,14.80
2009,05,21,11,38,14.80
2009,05,21,11,39,14.80
2009,05,21,11,40,14.80
2009,05,21,11,41,14.80
2009,05,21,11,42,14.70
2009,05,21,11,43,14.60
2009,05,21,11,44,14.60
2009,05,21,11,45,14.50
2009,05,21,11,46,14.50
2009,05,21,11,47,14.50
2009,05,21,11,48,14.60
2009,05,21,11,49,14.60
2009,05,21,11,50,14.70
2009,05,21,11,51,14.80
2009,05,21,11,52,14.80
2009,05,21,11,53,14.90
2009,05,21,11,54,15.00
2009,05,21,11,55,15.00
2009,05,21,11,56,15.00
2009,05,21,11,57,15.10
2009,05,21,11,58,15.20
2009,05,21,11,59,15.20
2009,05,21,12,00,15.20
2009,05,21,12,01,15.30
2009,05,21,12,02,15.30
2009,05,21,12,03,15.40
2009,05,21,12,04,15.40
2009,05,21,12,05,15.30
2009,05,21,12,06,15.20
2009,05,21,12,07,15.20
2009,05,21,12,08,15.20
2009,05,21,12,09,15.20
2009,05,21,12,10,15.20
2009,05,21,12,11,15.20
2009,05,21,12,12,15.20
2009,05,21,12,13,15.20
2009,05,21,12,14,15.30
2009,05,21,12,15,15.30
2009,05,21,12,16,15.30
2009,05,21,12,17,15.40
2009,05,21,12,18,15.50
2009,05,21,12,19,15.50
2009,05,21,12,20,15.60
2009,05,21,12,21,15.60
2009,05,21,12,22,15.70
2009,05,21,12,23,15.70
2009,05,21,12,24,15.70
2009,05,21,12,25,15.70
2009,05,21,12,26,15.70
2009,05,21,12,27,15.80
2009,05,21,12,28,15.80
2009,05,21,12,29,15.90
2009,05,21,12,30,15.90
2009,05,21,12,31,15.90
2009,05,21,12,32,15.90
2009,05,21,12,33,16.00
2009,05,21,12,34,16.10
2009,05,21,12,35,16.10
2009,05,21,12,36,16.20
2009,05,21,12,37,16.20
2009,05,21,12,38,16.20
2009,05,21,12,39,16.20
2009,05,21,12,40,16.20
2009,05,21,12,41,16.20
2009,05,21,12,42,16.30
2009,05,21,12,43,16.20
2009,05,21,12,44,16.20
2009,05,21,12,45,16.10
2009,05,21,12,46,16.10
2009,05,21,12,47,16.10
2009,05,21,12,48,16.10
2009,05,21,12,49,16.10
2009,05,21,12,50,16.10
2009,05,21,12,51,16.10
2009,05,21,12,52,16.10
2009,05,21,12,53,16.10
2009,05,21,12,54,16.10
2009,05,21,12,55,16.20
2009,05,21,12,56,16.20
2009,05,21,12,57,16.20
2009,05,21,12,58,16.20
2009,05,21,12,59,16.10
2009,05,21,13,00,16.10
2009,05,21,13,01,16.10
2009,05,21,13,02,16.00
2009,05,21,13,03,16.00
2009,05,21,13,04,16.00
2009,05,21,13,05,16.00
2009,05,21,13,06,16.00
2009,05,21,13,07,16.10
2009,05,21,13,08,16.20
2009,05,21,13,09,16.30
2009,05,21,13,10,16.40
2009,05,21,13,11,16.40
2009,05,21,13,12,16.50
2009,05,21,13,13,16.50
2009,05,21,13,14,16.60
2009,05,21,13,15,16.60
2009,05,21,13,16,16.50
2009,05,21,13,17,16.50
2009,05,21,13,18,16.50
2009,05,21,13,19,16.40
2009,05,21,13,20,16.30
2009,05,21,13,21,16.30
2009,05,21,13,22,16.30
2009,05,21,13,23,16.30
2009,05,21,13,24,16.30
2009,05,21,13,25,16.30
2009,05,21,13,26,16.30
2009,05,21,13,27,16.30
2009,05,21,13,28,16.30
2009,05,21,13,29,16.30
2009,05,21,13,30,16.40
2009,05,21,13,31,16.40
2009,05,21,13,32,16.50
2009,05,21,13,33,16.60
2009,05,21,13,34,16.70
2009,05,21,13,35,16.80
2009,05,21,13,36,16.80
2009,05,21,13,37,16.90
2009,05,21,13,38,17.10
2009,05,21,13,39,17.20
2009,05,21,13,40,17.30
2009,05,21,13,41,17.30
2009,05,21,13,42,17.30
2009,05,21,13,43,17.30
2009,05,21,13,44,17.30
2009,05,21,13,45,17.30
2009,05,21,13,46,17.20
2009,05,21,13,47,17.10
2009,05,21,13,48,17.10
2009,05,21,13,49,17.10
2009,05,21,13,50,17.20
2009,05,21,13,51,17.20
2009,05,21,13,52,17.20
2009,05,21,13,53,17.10
2009,05,21,13,54,17.10
2009,05,21,13,55,17.10
2009,05,21,13,56,17.10
2009,05,21,13,57,17.20
2009,05,21,13,58,17.20
2009,05,21,13,59,17.20
2009,05,21,14,00,17.20
2009,05,21,14,01,17.20
2009,05,21,14,02,17.20
2009,05,21,14,03,17.30
2009,05,21,14,04,17.30
2009,05,21,14,05,17.30
2009,05,21,14,06,17.40
2009,05,21,14,07,17.40
2009,05,21,14,08,17.40
2009,05,21,14,09,17.50
2009,05,21,14,10,17.60
2009,05,21,14,11,17.60
2009,05,21,14,12,17.60
2009,05,21,14,13,17.50
2009,05,21,14,14,17.50
2009,05,21,14,15,17.50
2009,05,21,14,16,17.60
2009,05,21,14,17,17.50
2009,05,21,14,18,17.50
2009,05,21,14,19,17.50
2009,05,21,14,20,17.40
2009,05,21,14,21,17.30
2009,05,21,14,22,17.30
2009,05,21,14,23,17.20
2009,05,21,14,24,17.20
2009,05,21,14,25,17.20
2009,05,21,14,26,17.20
2009,05,21,14,27,17.20
2009,05,21,14,28,17.20
2009,05,21,14,29,17.20
2009,05,21,14,30,17.20
2009,05,21,14,31,17.20
2009,05,21,14,32,17.30
2009,05,21,14,33,17.30
2009,05,21,14,34,17.30
2009,05,21,14,35,17.30
2009,05,21,14,36,17.30
2009,05,21,14,37,17.30
2009,05,21,14,38,17.30
2009,05,21,14,39,17.40
2009,05,21,14,40,17.40
2009,05,21,14,41,17.40
2009,05,21,14,42,17.50
2009,05,21,14,43,17.60
2009,05,21,14,44,17.60
2009,05,21,14,45,17.70
2009,05,21,14,46,17.60
2009,05,21,14,47,17.60
2009,05,21,14,48,17.60
2009,05,21,14,49,17.60
2009,05,21,14,50,17.70
2009,05,21,14,51,17.70
2009,05,21,14,52,17.70
2009,05,21,14,53,17.70
2009,05,21,14,54,17.80
2009,05,21,14,55,17.80
2009,05,21,14,56,17.90
2009,05,21,14,57,17.80
2009,05,21,14,58,17.80
2009,05,21,14,59,17.80
2009,05,21,15,00,17.70
2009,05,21,15,01,17.70
2009,05,21,15,02,17.70
2009,05,21,15,03,17.70
2009,05,21,15,04,17.70
2009,05,21,15,05,17.60
2009,05,21,15,06,17.60
2009,05,21,15,07,17.50
2009,05,21,15,08,17.50
2009,05,21,15,09,17.40
2009,05,21,15,10,17.40
2009,05,21,15,11,17.50
2009,05,21,15,12,17.60
2009,05,21,15,13,17.60
2009,05,21,15,14,17.70
2009,05,21,15,15,17.80
2009,05,21,15,16,17.90
2009,05,21,15,17,17.90
2009,05,21,15,18,17.90
2009,05,21,15,19,17.90
2009,05,21,15,20,17.80
2009,05,21,15,21,17.80
2009,05,21,15,22,17.80
2009,05,21,15,23,17.80
2009,05,21,15,24,17.90
2009,05,21,15,25,17.90
2009,05,21,15,26,18.00
2009,05,21,15,27,18.10
2009,05,21,15,28,18.10
2009,05,21,15,29,18.10
2009,05,21,15,30,18.10
2009,05,21,15,31,18.10
2009,05,21,15,32,18.00
2009,05,21,15,33,17.90
2009,05,21,15,34,17.80
2009,05,21,15,35,17.80
2009,05,21,15,36,17.80
2009,05,21,15,37,17.80
2009,05,21,15,38,17.80
2009,05,21,15,39,17.90
2009,05,21,15,40,17.90
2009,05,21,15,41,17.90
2009,05,21,15,42,18.00
2009,05,21,15,43,18.00
2009,05,21,15,44,18.10
2009,05,21,15,45,18.10
2009,05,21,15,46,18.10
2009,05,21,15,47,18.10
2009,05,21,15,48,18.20
2009,05,21,15,49,18.20
2009,05,21,15,50,18.20
2009,05,21,15,51,18.30
2009,05,21,15,52,18.30
2009,05,21,15,53,18.30
2009,05,21,15,54,18.40
2009,05,21,15,55,18.50
2009,05,21,15,56,18.50
2009,05,21,15,57,18.60
2009,05,21,15,58,18.70
2009,05,21,15,59,18.70
2009,05,21,16,00,18.70
2009,05,21,16,01,18.70
2009,05,21,16,02,18.70
2009,05,21,16,03,18.60
2009,05,21,16,04,18.60
2009,05,21,16,05,18.60
2009,05,21,16,06,18.60
2009,05,21,16,07,18.60
2009,05,21,16,08,18.70
2009,05,21,16,09,18.70
2009,05,21,16,10,18.70
2009,05,21,16,11,18.80
2009,05,21,16,12,18.80
2009,05,21,16,13,18.90
2009,05,21,16,14,18.90
2009,05,21,16,15,18.90
2009,05,21,16,16,19.00
2009,05,21,16,17,19.00
2009,05,21,16,18,18.90
2009,05,21,16,19,18.90
2009,05,21,16,20,18.90
2009,05,21,16,21,18.90
2009,05,21,16,22,18.90
2009,05,21,16,23,18.90
2009,05,21,16,24,18.90
2009,05,21,16,25,18.90
2009,05,21,16,26,19.00
2009,05,21,16,27,19.00
2009,05,21,16,28,19.10
2009,05,21,16,29,19.10
2009,05,21,16,30,19.10
2009,05,21,16,31,19.00
2009,05,21,16,32,19.00
2009,05,21,16,33,19.00
2009,05,21,16,34,19.10
2009,05,21,16,35,19.10
2009,05,21,16,36,19.20
2009,05,21,16,37,19.20
2009,05,21,16,38,19.20
2009,05,21,16,39,19.20
2009,05,21,16,40,19.20
2009,05,21,16,41,19.20
2009,05,21,16,42,19.20
2009,05,21,16,43,19.20
2009,05,21,16,44,19.20
2009,05,21,16,45,19.10
2009,05,21,16,46,19.00
2009,05,21,16,47,19.00
2009,05,21,16,48,18.90
2009,05,21,16,49,18.90
2009,05,21,16,50,18.90
2009,05,21,16,51,18.90
2009,05,21,16,52,18.90
2009,05,21,16,53,19.00
2009,05,21,16,54,19.00
2009,05,21,16,55,18.90
2009,05,21,16,56,18.90
2009,05,21,16,57,18.90
2009,05,21,16,58,18.80
2009,05,21,16,59,18.80
2009,05,21,17,00,18.80
2009,05,21,17,01,18.80
2009,05,21,17,02,18.80
2009,05,21,17,03,18.80
2009,05,21,17,04,18.80
2009,05,21,17,05,18.80
2009,05,21,17,06,18.70
2009,05,21,17,07,18.80
2009,05,21,17,08,18.80
2009,05,21,17,09,18.80
2009,05,21,17,10,18.80
2009,05,21,17,11,18.80
2009,05,21,17,12,18.80
2009,05,21,17,13,18.80
2009,05,21,17,14,18.80
2009,05,21,17,15,18.90
2009,05,21,17,16,18.90
2009,05,21,17,17,18.90
2009,05,21,17,18,18.90
2009,05,21,17,19,19.00
2009,05,21,17,20,19.10
2009,05,21,17,21,19.10
2009,05,21,17,22,19.10
2009,05,21,17,23,19.10
2009,05,21,17,24,19.10
2009,05,21,17,25,19.10
2009,05,21,17,26,19.10
2009,05,21,17,27,19.10
2009,05,21,17,28,19.10
2009,05,21,17,29,19.10
2009,05,21,17,30,19.10
2009,05,21,17,31,19.10
2009,05,21,17,32,19.10
2009,05,21,17,33,19.10
2009,05,21,17,34,19.20
2009,05,21,17,35,19.20
2009,05,21,17,36,19.20
2009,05,21,17,37,19.20
2009,05,21,17,38,19.30
2009,05,21,17,39,19.30
2009,05,21,17,40,19.30
2009,05,21,17,41,19.30